Frederick, OK

1:10 PM CDT on August 22, 2017 (GMT -0500)
Frederick Municipal

Weather History for KFDR - December, 2013

Change the Weather History Date:

Wednesday, December 11, 2013

  Actual Average (KLTS) Record (KLTS)
Temperature  
Mean Temperature 29 °F -  
Max Temperature 39 °F 52 °F 71 °F (1996)
Min Temperature 19 °F 28 °F 15 °F (2000)
Degree Days  
Heating Degree Days 36    
Moisture  
Dew Point 20 °F    
Average Humidity 73    
Maximum Humidity 85    
Minimum Humidity 57    
Precipitation  
Precipitation 0.00 in - - ()
Sea Level Pressure  
Sea Level Pressure 30.45 in    
Wind  
Wind Speed 9 mph (NNE)    
Max Wind Speed 20 mph    
Max Gust Speed -    
Visibility 10 miles    
Events      
Averages and records for this station are not official NWS values.
T = Trace of Precipitation, MM = Missing Value Source: NWS Daily Summary

Daily Weather History Graph

Daily Weather History Graph

Search for Another Location

Airport or City:

Trip Planner

Search our weather history database for the weather conditions in past years. The results will help you decide how hot, cold, wet, or windy it might be!

Date:

Astronomy

Dec. 11, 2013 Rise Set
Actual Time 7:32 AM CST 5:26 PM CST
Civil Twilight 7:04 AM CST 5:54 PM CST
Nautical Twilight 6:33 AM CST 6:25 PM CST
Astronomical Twilight 6:02 AM CST 6:56 PM CST
Moon 1:50 PM CST (12/11) 2:06 AM CST (12/11)
Length of Visible Light 10h 49m
Length of Day
9h 54m
Waxing Gibbous, 72% of the Moon is Illuminated
Dec 11
Waxing Gibbous
Dec 17
Full
Dec 25
Last Quarter
Jan 1
New
Jan 7
First Quarter

Hourly Weather History & Observations

Time (CST) Temp. Windchill Dew Point Humidity Pressure Visibility Wind Dir Wind Speed Gust Speed Precip Events Conditions
12:53 AM 26.1 °F 19.4 °F 19.0 °F 75% 30.23 in 10.0 mi South 5.8 mph - N/A   Clear
1:53 AM 23.0 °F 17.0 °F 18.0 °F 81% 30.23 in 10.0 mi East 4.6 mph - N/A   Clear
2:53 AM 21.0 °F 16.2 °F 16.0 °F 81% 30.24 in 9.0 mi East 3.5 mph - N/A   Clear
3:53 AM 19.9 °F 10.1 °F 16.0 °F 85% 30.25 in 9.0 mi East 8.1 mph - N/A   Clear
4:53 AM 19.9 °F 10.1 °F 15.1 °F 81% 30.26 in 8.0 mi ENE 8.1 mph - N/A   Clear
5:53 AM 19.9 °F 6.2 °F 15.1 °F 81% 30.30 in 8.0 mi North 15.0 mph - N/A   Clear
6:53 AM 19.9 °F 8.6 °F 15.1 °F 81% 30.34 in 9.0 mi NNE 10.4 mph - N/A   Clear
7:53 AM 19.9 °F 11.1 °F 15.1 °F 81% 30.38 in 7.0 mi North 6.9 mph - N/A   Clear
8:53 AM 26.1 °F 15.6 °F 19.9 °F 78% 30.42 in 9.0 mi North 11.5 mph - N/A   Clear
9:53 AM 32.0 °F 23.0 °F 23.0 °F 69% 30.46 in 10.0 mi NNE 11.5 mph - N/A   Clear
10:53 AM 36.0 °F 25.3 °F 21.9 °F 57% 30.49 in 10.0 mi NNE 19.6 mph - N/A   Clear
11:53 AM 36.0 °F 27.1 °F 23.0 °F 59% 30.50 in 10.0 mi North 13.8 mph - N/A   Clear
12:53 PM 36.0 °F 26.0 °F 24.1 °F 62% 30.50 in 10.0 mi North 17.3 mph - N/A   Clear
1:53 PM 37.0 °F 27.7 °F 24.1 °F 59% 30.49 in 10.0 mi North 16.1 mph - N/A   Clear
2:53 PM 39.0 °F 30.6 °F 26.1 °F 60% 30.51 in 10.0 mi North 15.0 mph - N/A   Clear
3:53 PM 37.9 °F 28.5 °F 25.0 °F 60% 30.52 in 10.0 mi North 17.3 mph - N/A   Clear
4:53 PM 36.0 °F 28.0 °F 25.0 °F 64% 30.53 in 10.0 mi North 11.5 mph - N/A   Clear
5:53 PM 30.9 °F 22.8 °F 25.0 °F 79% 30.56 in 10.0 mi North 9.2 mph - N/A   Clear
6:53 PM 30.0 °F 21.1 °F 23.0 °F 75% 30.57 in 10.0 mi North 10.4 mph - N/A   Clear
7:53 PM 28.9 °F 20.4 °F 21.9 °F 75% 30.59 in 10.0 mi North 9.2 mph - N/A   Clear
8:53 PM 28.0 °F 18.6 °F 21.0 °F 75% 30.61 in 10.0 mi North 10.4 mph - N/A   Clear
9:53 PM 27.0 °F 18.7 °F 19.9 °F 75% 30.60 in 10.0 mi North 8.1 mph - N/A   Clear
10:53 PM 26.1 °F 16.8 °F 19.0 °F 75% 30.60 in 10.0 mi North 9.2 mph - N/A   Clear
11:53 PM 24.1 °F 15.2 °F 18.0 °F 77% 30.60 in 10.0 mi North 8.1 mph - N/A   Clear